Year,Month,Day,Hour,Minute,Value (Times are PST for temperature in C)
2021,06,25,00,00,14.30
2021,06,25,00,01,14.30
2021,06,25,00,02,14.30
2021,06,25,00,03,14.30
2021,06,25,00,04,14.30
2021,06,25,00,05,14.30
2021,06,25,00,06,14.30
2021,06,25,00,07,14.30
2021,06,25,00,08,14.20
2021,06,25,00,09,14.20
2021,06,25,00,10,14.20
2021,06,25,00,11,14.20
2021,06,25,00,12,14.20
2021,06,25,00,13,14.20
2021,06,25,00,14,14.20
2021,06,25,00,15,14.20
2021,06,25,00,16,14.20
2021,06,25,00,17,14.20
2021,06,25,00,18,14.20
2021,06,25,00,19,14.10
2021,06,25,00,20,14.10
2021,06,25,00,21,14.10
2021,06,25,00,22,14.10
2021,06,25,00,23,14.10
2021,06,25,00,24,14.10
2021,06,25,00,25,14.10
2021,06,25,00,26,14.10
2021,06,25,00,27,14.10
2021,06,25,00,28,14.10
2021,06,25,00,29,14.10
2021,06,25,00,30,14.00
2021,06,25,00,31,14.00
2021,06,25,00,32,14.00
2021,06,25,00,33,14.00
2021,06,25,00,34,14.00
2021,06,25,00,35,14.00
2021,06,25,00,36,14.00
2021,06,25,00,37,14.00
2021,06,25,00,38,14.00
2021,06,25,00,39,14.00
2021,06,25,00,40,13.90
2021,06,25,00,41,13.90
2021,06,25,00,42,13.90
2021,06,25,00,43,14.00
2021,06,25,00,44,14.00
2021,06,25,00,45,14.00
2021,06,25,00,46,13.90
2021,06,25,00,47,14.00
2021,06,25,00,48,14.00
2021,06,25,00,49,14.00
2021,06,25,00,50,14.00
2021,06,25,00,51,14.10
2021,06,25,00,52,14.10
2021,06,25,00,53,14.10
2021,06,25,00,54,14.10
2021,06,25,00,55,14.20
2021,06,25,00,56,14.20
2021,06,25,00,57,14.20
2021,06,25,00,58,14.20
2021,06,25,00,59,14.20
2021,06,25,01,00,14.30
2021,06,25,01,01,14.30
2021,06,25,01,02,14.30
2021,06,25,01,03,14.30
2021,06,25,01,04,14.30
2021,06,25,01,05,14.30
2021,06,25,01,06,14.40
2021,06,25,01,07,14.40
2021,06,25,01,08,14.50
2021,06,25,01,09,14.50
2021,06,25,01,10,14.60
2021,06,25,01,11,14.60
2021,06,25,01,12,14.70
2021,06,25,01,13,14.70
2021,06,25,01,14,14.80
2021,06,25,01,15,14.80
2021,06,25,01,16,14.90
2021,06,25,01,17,14.90
2021,06,25,01,18,15.00
2021,06,25,01,19,15.00
2021,06,25,01,20,15.10
2021,06,25,01,21,15.10
2021,06,25,01,22,15.20
2021,06,25,01,23,15.20
2021,06,25,01,24,15.30
2021,06,25,01,25,15.30
2021,06,25,01,26,15.30
2021,06,25,01,27,15.30
2021,06,25,01,28,15.30
2021,06,25,01,29,15.30
2021,06,25,01,30,15.30
2021,06,25,01,31,15.30
2021,06,25,01,32,15.30
2021,06,25,01,33,15.30
2021,06,25,01,34,15.30
2021,06,25,01,35,15.30
2021,06,25,01,36,15.30
2021,06,25,01,37,15.30
2021,06,25,01,38,15.30
2021,06,25,01,39,15.30
2021,06,25,01,40,15.30
2021,06,25,01,41,15.30
2021,06,25,01,42,15.30
2021,06,25,01,43,15.20
2021,06,25,01,44,15.20
2021,06,25,01,45,15.20
2021,06,25,01,46,15.20
2021,06,25,01,47,15.10
2021,06,25,01,48,15.00
2021,06,25,01,49,15.00
2021,06,25,01,50,14.90
2021,06,25,01,51,14.90
2021,06,25,01,52,14.80
2021,06,25,01,53,14.80
2021,06,25,01,54,14.80
2021,06,25,01,55,14.80
2021,06,25,01,56,14.80
2021,06,25,01,57,14.70
2021,06,25,01,58,14.70
2021,06,25,01,59,14.70
2021,06,25,02,00,14.70
2021,06,25,02,01,14.70
2021,06,25,02,02,14.70
2021,06,25,02,03,14.70
2021,06,25,02,04,14.70
2021,06,25,02,05,14.70
2021,06,25,02,06,14.60
2021,06,25,02,07,14.60
2021,06,25,02,08,14.60
2021,06,25,02,09,14.60
2021,06,25,02,10,14.50
2021,06,25,02,11,14.50
2021,06,25,02,12,14.40
2021,06,25,02,13,14.40
2021,06,25,02,14,14.40
2021,06,25,02,15,14.40
2021,06,25,02,16,14.30
2021,06,25,02,17,14.30
2021,06,25,02,18,14.30
2021,06,25,02,19,14.30
2021,06,25,02,20,14.20
2021,06,25,02,21,14.20
2021,06,25,02,22,14.20
2021,06,25,02,23,14.20
2021,06,25,02,24,14.20
2021,06,25,02,25,14.10
2021,06,25,02,26,14.10
2021,06,25,02,27,14.10
2021,06,25,02,28,14.10
2021,06,25,02,29,14.10
2021,06,25,02,30,14.10
2021,06,25,02,31,14.00
2021,06,25,02,32,14.00
2021,06,25,02,33,14.00
2021,06,25,02,34,14.00
2021,06,25,02,35,14.00
2021,06,25,02,36,14.00
2021,06,25,02,37,14.00
2021,06,25,02,38,13.90
2021,06,25,02,39,13.90
2021,06,25,02,40,13.90
2021,06,25,02,41,13.90
2021,06,25,02,42,13.90
2021,06,25,02,43,13.90
2021,06,25,02,44,13.90
2021,06,25,02,45,13.90
2021,06,25,02,46,13.90
2021,06,25,02,47,13.90
2021,06,25,02,48,13.90
2021,06,25,02,49,13.90
2021,06,25,02,50,13.90
2021,06,25,02,51,13.90
2021,06,25,02,52,13.90
2021,06,25,02,53,13.90
2021,06,25,02,54,13.90
2021,06,25,02,55,13.90
2021,06,25,02,56,14.00
2021,06,25,02,57,13.90
2021,06,25,02,58,14.00
2021,06,25,02,59,14.00
2021,06,25,03,00,14.00
2021,06,25,03,01,14.00
2021,06,25,03,02,14.00
2021,06,25,03,03,14.00
2021,06,25,03,04,14.00
2021,06,25,03,05,14.00
2021,06,25,03,06,14.10
2021,06,25,03,07,14.10
2021,06,25,03,08,14.10
2021,06,25,03,09,14.10
2021,06,25,03,10,14.10
2021,06,25,03,11,14.10
2021,06,25,03,12,14.20
2021,06,25,03,13,14.10
2021,06,25,03,14,14.20
2021,06,25,03,15,14.20
2021,06,25,03,16,14.20
2021,06,25,03,17,14.20
2021,06,25,03,18,14.20
2021,06,25,03,19,14.20
2021,06,25,03,20,14.20
2021,06,25,03,21,14.20
2021,06,25,03,22,14.20
2021,06,25,03,23,14.20
2021,06,25,03,24,14.20
2021,06,25,03,25,14.20
2021,06,25,03,26,14.20
2021,06,25,03,27,14.20
2021,06,25,03,28,14.20
2021,06,25,03,29,14.20
2021,06,25,03,30,14.20
2021,06,25,03,31,14.20
2021,06,25,03,32,14.20
2021,06,25,03,33,14.20
2021,06,25,03,34,14.20
2021,06,25,03,35,14.20
2021,06,25,03,36,14.20
2021,06,25,03,37,14.20
2021,06,25,03,38,14.30
2021,06,25,03,39,14.30
2021,06,25,03,40,14.30
2021,06,25,03,41,14.30
2021,06,25,03,42,14.30
2021,06,25,03,43,14.20
2021,06,25,03,44,14.20
2021,06,25,03,45,14.20
2021,06,25,03,46,14.20
2021,06,25,03,47,14.20
2021,06,25,03,48,14.20
2021,06,25,03,49,14.20
2021,06,25,03,50,14.20
2021,06,25,03,51,14.20
2021,06,25,03,52,14.20
2021,06,25,03,53,14.20
2021,06,25,03,54,14.20
2021,06,25,03,55,14.20
2021,06,25,03,56,14.20
2021,06,25,03,57,14.20
2021,06,25,03,58,14.20
2021,06,25,03,59,14.20
2021,06,25,04,00,14.20
2021,06,25,04,01,14.20
2021,06,25,04,02,14.20
2021,06,25,04,03,14.20
2021,06,25,04,04,14.20
2021,06,25,04,05,14.30
2021,06,25,04,06,14.30
2021,06,25,04,07,14.30
2021,06,25,04,08,14.30
2021,06,25,04,09,14.30
2021,06,25,04,10,14.30
2021,06,25,04,11,14.30
2021,06,25,04,12,14.30
2021,06,25,04,13,14.30
2021,06,25,04,14,14.30
2021,06,25,04,15,14.20
2021,06,25,04,16,14.20
2021,06,25,04,17,14.20
2021,06,25,04,18,14.20
2021,06,25,04,19,14.20
2021,06,25,04,20,14.20
2021,06,25,04,21,14.20
2021,06,25,04,22,14.20
2021,06,25,04,23,14.20
2021,06,25,04,24,14.20
2021,06,25,04,25,14.20
2021,06,25,04,26,14.20
2021,06,25,04,27,14.20
2021,06,25,04,28,14.20
2021,06,25,04,29,14.20
2021,06,25,04,30,14.20
2021,06,25,04,31,14.20
2021,06,25,04,32,14.20
2021,06,25,04,33,14.20
2021,06,25,04,34,14.20
2021,06,25,04,35,14.20
2021,06,25,04,36,14.20
2021,06,25,04,37,14.20
2021,06,25,04,38,14.20
2021,06,25,04,39,14.20
2021,06,25,04,40,14.20
2021,06,25,04,41,14.20
2021,06,25,04,42,14.20
2021,06,25,04,43,14.20
2021,06,25,04,44,14.20
2021,06,25,04,45,14.20
2021,06,25,04,46,14.20
2021,06,25,04,47,14.20
2021,06,25,04,48,14.20
2021,06,25,04,49,14.20
2021,06,25,04,50,14.20
2021,06,25,04,51,14.20
2021,06,25,04,52,14.20
2021,06,25,04,53,14.20
2021,06,25,04,54,14.10
2021,06,25,04,55,14.20
2021,06,25,04,56,14.20
2021,06,25,04,57,14.10
2021,06,25,04,58,14.20
2021,06,25,04,59,14.20
2021,06,25,05,00,14.20
2021,06,25,05,01,14.20
2021,06,25,05,02,14.20
2021,06,25,05,03,14.20
2021,06,25,05,04,14.20
2021,06,25,05,05,14.20
2021,06,25,05,06,14.20
2021,06,25,05,07,14.20
2021,06,25,05,08,14.10
2021,06,25,05,09,14.10
2021,06,25,05,10,14.10
2021,06,25,05,11,14.00
2021,06,25,05,12,14.00
2021,06,25,05,13,13.90
2021,06,25,05,14,13.90
2021,06,25,05,15,13.90
2021,06,25,05,16,13.80
2021,06,25,05,17,13.80
2021,06,25,05,18,13.80
2021,06,25,05,19,13.80
2021,06,25,05,20,13.70
2021,06,25,05,21,13.70
2021,06,25,05,22,13.70
2021,06,25,05,23,13.70
2021,06,25,05,24,13.70
2021,06,25,05,25,13.60
2021,06,25,05,26,13.60
2021,06,25,05,27,13.60
2021,06,25,05,28,13.60
2021,06,25,05,29,13.60
2021,06,25,05,30,13.50
2021,06,25,05,31,13.50
2021,06,25,05,32,13.50
2021,06,25,05,33,13.40
2021,06,25,05,34,13.40
2021,06,25,05,35,13.40
2021,06,25,05,36,13.30
2021,06,25,05,37,13.30
2021,06,25,05,38,13.30
2021,06,25,05,39,13.30
2021,06,25,05,40,13.20
2021,06,25,05,41,13.20
2021,06,25,05,42,13.10
2021,06,25,05,43,13.10
2021,06,25,05,44,13.10
2021,06,25,05,45,13.10
2021,06,25,05,46,13.10
2021,06,25,05,47,13.10
2021,06,25,05,48,13.00
2021,06,25,05,49,13.00
2021,06,25,05,50,13.00
2021,06,25,05,51,13.00
2021,06,25,05,52,13.00
2021,06,25,05,53,13.00
2021,06,25,05,54,13.00
2021,06,25,05,55,13.00
2021,06,25,05,56,13.00
2021,06,25,05,57,13.10
2021,06,25,05,58,13.00
2021,06,25,05,59,13.10
2021,06,25,06,00,13.10
2021,06,25,06,01,13.10
2021,06,25,06,02,13.10
2021,06,25,06,03,13.10
2021,06,25,06,04,13.10
2021,06,25,06,05,13.20
2021,06,25,06,06,13.20
2021,06,25,06,07,13.20
2021,06,25,06,08,13.20
2021,06,25,06,09,13.20
2021,06,25,06,10,13.20
2021,06,25,06,11,13.30
2021,06,25,06,12,13.30
2021,06,25,06,13,13.30
2021,06,25,06,14,13.30
2021,06,25,06,15,13.30
2021,06,25,06,16,13.30
2021,06,25,06,17,13.30
2021,06,25,06,18,13.30
2021,06,25,06,19,13.30
2021,06,25,06,20,13.30
2021,06,25,06,21,13.40
2021,06,25,06,22,13.40
2021,06,25,06,23,13.40
2021,06,25,06,24,13.40
2021,06,25,06,25,13.40
2021,06,25,06,26,13.40
2021,06,25,06,27,13.40
2021,06,25,06,28,13.50
2021,06,25,06,29,13.50
2021,06,25,06,30,13.60
2021,06,25,06,31,13.60
2021,06,25,06,32,13.60
2021,06,25,06,33,13.60
2021,06,25,06,34,13.60
2021,06,25,06,35,13.70
2021,06,25,06,36,13.70
2021,06,25,06,37,13.70
2021,06,25,06,38,13.80
2021,06,25,06,39,13.80
2021,06,25,06,40,13.90
2021,06,25,06,41,13.90
2021,06,25,06,42,14.00
2021,06,25,06,43,14.00
2021,06,25,06,44,14.10
2021,06,25,06,45,14.20
2021,06,25,06,46,14.20
2021,06,25,06,47,14.30
2021,06,25,06,48,14.30
2021,06,25,06,49,14.40
2021,06,25,06,50,14.50
2021,06,25,06,51,14.60
2021,06,25,06,52,14.70
2021,06,25,06,53,14.80
2021,06,25,06,54,14.80
2021,06,25,06,55,14.90
2021,06,25,06,56,15.00
2021,06,25,06,57,15.10
2021,06,25,06,58,15.20
2021,06,25,06,59,15.30
2021,06,25,07,00,15.40
2021,06,25,07,01,15.50
2021,06,25,07,02,15.60
2021,06,25,07,03,15.60
2021,06,25,07,04,15.70
2021,06,25,07,05,15.80
2021,06,25,07,06,15.80
2021,06,25,07,07,15.90
2021,06,25,07,08,16.00
2021,06,25,07,09,16.10
2021,06,25,07,10,16.20
2021,06,25,07,11,16.30
2021,06,25,07,12,16.40
2021,06,25,07,13,16.50
2021,06,25,07,14,16.60
2021,06,25,07,15,16.60
2021,06,25,07,16,16.70
2021,06,25,07,17,16.80
2021,06,25,07,18,16.80
2021,06,25,07,19,16.90
2021,06,25,07,20,17.00
2021,06,25,07,21,17.00
2021,06,25,07,22,17.10
2021,06,25,07,23,17.20
2021,06,25,07,24,17.20
2021,06,25,07,25,17.30
2021,06,25,07,26,17.30
2021,06,25,07,27,17.40
2021,06,25,07,28,17.40
2021,06,25,07,29,17.50
2021,06,25,07,30,17.50
2021,06,25,07,31,17.50
2021,06,25,07,32,17.60
2021,06,25,07,33,17.60
2021,06,25,07,34,17.60
2021,06,25,07,35,17.70
2021,06,25,07,36,17.70
2021,06,25,07,37,17.70
2021,06,25,07,38,17.80
2021,06,25,07,39,17.80
2021,06,25,07,40,17.90
2021,06,25,07,41,17.90
2021,06,25,07,42,18.00
2021,06,25,07,43,18.10
2021,06,25,07,44,18.20
2021,06,25,07,45,18.20
2021,06,25,07,46,18.30
2021,06,25,07,47,18.30
2021,06,25,07,48,18.40
2021,06,25,07,49,18.40
2021,06,25,07,50,18.50
2021,06,25,07,51,18.50
2021,06,25,07,52,18.60
2021,06,25,07,53,18.60
2021,06,25,07,54,18.60
2021,06,25,07,55,18.70
2021,06,25,07,56,18.80
2021,06,25,07,57,18.80
2021,06,25,07,58,18.80
2021,06,25,07,59,18.90
2021,06,25,08,00,18.90
2021,06,25,08,01,19.00
2021,06,25,08,02,19.00
2021,06,25,08,03,19.10
2021,06,25,08,04,19.20
2021,06,25,08,05,19.20
2021,06,25,08,06,19.30
2021,06,25,08,07,19.40
2021,06,25,08,08,19.40
2021,06,25,08,09,19.50
2021,06,25,08,10,19.50
2021,06,25,08,11,19.60
2021,06,25,08,12,19.60
2021,06,25,08,13,19.70
2021,06,25,08,14,19.70
2021,06,25,08,15,19.80
2021,06,25,08,16,19.80
2021,06,25,08,17,19.90
2021,06,25,08,18,19.90
2021,06,25,08,19,20.00
2021,06,25,08,20,20.10
2021,06,25,08,21,20.10
2021,06,25,08,22,20.20
2021,06,25,08,23,20.30
2021,06,25,08,24,20.30
2021,06,25,08,25,20.40
2021,06,25,08,26,20.40
2021,06,25,08,27,20.40
2021,06,25,08,28,20.40
2021,06,25,08,29,20.40
2021,06,25,08,30,20.50
2021,06,25,08,31,20.50
2021,06,25,08,32,20.50
2021,06,25,08,33,20.50
2021,06,25,08,34,20.50
2021,06,25,08,35,20.40
2021,06,25,08,36,20.40
2021,06,25,08,37,20.40
2021,06,25,08,38,20.40
2021,06,25,08,39,20.50
2021,06,25,08,40,20.50
2021,06,25,08,41,20.60
2021,06,25,08,42,20.60
2021,06,25,08,43,20.70
2021,06,25,08,44,20.70
2021,06,25,08,45,20.80
2021,06,25,08,46,20.90
2021,06,25,08,47,20.90
2021,06,25,08,48,20.90
2021,06,25,08,49,20.90
2021,06,25,08,50,20.90
2021,06,25,08,51,20.80
2021,06,25,08,52,20.70
2021,06,25,08,53,20.70
2021,06,25,08,54,20.60
2021,06,25,08,55,20.60
2021,06,25,08,56,20.60
2021,06,25,08,57,20.60
2021,06,25,08,58,20.70
2021,06,25,08,59,20.80
2021,06,25,09,00,20.80
2021,06,25,09,01,20.90
2021,06,25,09,02,21.00
2021,06,25,09,03,21.10
2021,06,25,09,04,21.20
2021,06,25,09,05,21.30
2021,06,25,09,06,21.40
2021,06,25,09,07,21.60
2021,06,25,09,08,21.80
2021,06,25,09,09,22.10
2021,06,25,09,10,22.30
2021,06,25,09,11,22.50
2021,06,25,09,12,22.80
2021,06,25,09,13,23.00
2021,06,25,09,14,23.20
2021,06,25,09,15,23.30
2021,06,25,09,16,23.40
2021,06,25,09,17,23.30
2021,06,25,09,18,23.10
2021,06,25,09,19,23.00
2021,06,25,09,20,22.90
2021,06,25,09,21,22.80
2021,06,25,09,22,22.60
2021,06,25,09,23,22.40
2021,06,25,09,24,22.20
2021,06,25,09,25,22.10
2021,06,25,09,26,22.00
2021,06,25,09,27,22.00
2021,06,25,09,28,22.00
2021,06,25,09,29,22.00
2021,06,25,09,30,21.90
2021,06,25,09,31,21.90
2021,06,25,09,32,21.90
2021,06,25,09,33,21.90
2021,06,25,09,34,21.90
2021,06,25,09,35,21.90
2021,06,25,09,36,21.90
2021,06,25,09,37,21.90
2021,06,25,09,38,21.80
2021,06,25,09,39,21.80
2021,06,25,09,40,21.90
2021,06,25,09,41,21.90
2021,06,25,09,42,21.90
2021,06,25,09,43,21.90
2021,06,25,09,44,21.80
2021,06,25,09,45,21.80
2021,06,25,09,46,21.80
2021,06,25,09,47,21.80
2021,06,25,09,48,21.80
2021,06,25,09,49,21.80
2021,06,25,09,50,21.80
2021,06,25,09,51,21.80
2021,06,25,09,52,21.80
2021,06,25,09,53,21.80
2021,06,25,09,54,21.80
2021,06,25,09,55,21.80
2021,06,25,09,56,21.80
2021,06,25,09,57,21.80
2021,06,25,09,58,21.90
2021,06,25,09,59,21.90
2021,06,25,10,00,21.90
2021,06,25,10,01,21.90
2021,06,25,10,02,21.90
2021,06,25,10,03,21.90
2021,06,25,10,04,21.90
2021,06,25,10,05,21.90
2021,06,25,10,06,22.00
2021,06,25,10,07,22.10
2021,06,25,10,08,22.10
2021,06,25,10,09,22.20
2021,06,25,10,10,22.30
2021,06,25,10,11,22.30
2021,06,25,10,12,22.40
2021,06,25,10,13,22.40
2021,06,25,10,14,22.50
2021,06,25,10,15,22.50
2021,06,25,10,16,22.60
2021,06,25,10,17,22.60
2021,06,25,10,18,22.70
2021,06,25,10,19,22.70
2021,06,25,10,20,22.80
2021,06,25,10,21,22.80
2021,06,25,10,22,22.80
2021,06,25,10,23,22.80
2021,06,25,10,24,22.80
2021,06,25,10,25,22.90
2021,06,25,10,26,22.90
2021,06,25,10,27,22.90
2021,06,25,10,28,22.90
2021,06,25,10,29,22.90
2021,06,25,10,30,22.90
2021,06,25,10,31,22.90
2021,06,25,10,32,22.90
2021,06,25,10,33,22.90
2021,06,25,10,34,22.90
2021,06,25,10,35,22.90
2021,06,25,10,36,22.90
2021,06,25,10,37,23.00
2021,06,25,10,38,23.00
2021,06,25,10,39,23.00
2021,06,25,10,40,23.00
2021,06,25,10,41,23.10
2021,06,25,10,42,23.10
2021,06,25,10,43,23.10
2021,06,25,10,44,23.00
2021,06,25,10,45,23.10
2021,06,25,10,46,23.10
2021,06,25,10,47,23.10
2021,06,25,10,48,23.10
2021,06,25,10,49,23.20
2021,06,25,10,50,23.20
2021,06,25,10,51,23.20
2021,06,25,10,52,23.30
2021,06,25,10,53,23.30
2021,06,25,10,54,23.40
2021,06,25,10,55,23.40
2021,06,25,10,56,23.50
2021,06,25,10,57,23.50
2021,06,25,10,58,23.50
2021,06,25,10,59,23.50
2021,06,25,11,00,23.50
2021,06,25,11,01,23.40
2021,06,25,11,02,23.40
2021,06,25,11,03,23.30
2021,06,25,11,04,23.30
2021,06,25,11,05,23.30
2021,06,25,11,06,23.30
2021,06,25,11,07,23.30
2021,06,25,11,08,23.30
2021,06,25,11,09,23.30
2021,06,25,11,10,23.30
2021,06,25,11,11,23.30
2021,06,25,11,12,23.40
2021,06,25,11,13,23.40
2021,06,25,11,14,23.50
2021,06,25,11,15,23.60
2021,06,25,11,16,23.70
2021,06,25,11,17,23.80
2021,06,25,11,18,23.90
2021,06,25,11,19,23.90
2021,06,25,11,20,24.00
2021,06,25,11,21,24.00
2021,06,25,11,22,24.10
2021,06,25,11,23,24.10
2021,06,25,11,24,24.10
2021,06,25,11,25,24.10
2021,06,25,11,26,24.00
2021,06,25,11,27,24.00
2021,06,25,11,28,24.10
2021,06,25,11,29,24.00
2021,06,25,11,30,24.00
2021,06,25,11,31,23.90
2021,06,25,11,32,23.90
2021,06,25,11,33,23.90
2021,06,25,11,34,23.90
2021,06,25,11,35,23.90
2021,06,25,11,36,23.90
2021,06,25,11,37,24.10
2021,06,25,11,38,24.20
2021,06,25,11,39,24.20
2021,06,25,11,40,24.30
2021,06,25,11,41,24.30
2021,06,25,11,42,24.30
2021,06,25,11,43,24.40
2021,06,25,11,44,24.40
2021,06,25,11,45,24.40
2021,06,25,11,46,24.50
2021,06,25,11,47,24.50
2021,06,25,11,48,24.50
2021,06,25,11,49,24.50
2021,06,25,11,50,24.60
2021,06,25,11,51,24.70
2021,06,25,11,52,24.70
2021,06,25,11,53,24.80
2021,06,25,11,54,24.90
2021,06,25,11,55,24.90
2021,06,25,11,56,24.90
2021,06,25,11,57,25.00
2021,06,25,11,58,25.00
2021,06,25,11,59,25.10
2021,06,25,12,00,25.10
2021,06,25,12,01,25.10
2021,06,25,12,02,25.10
2021,06,25,12,03,25.00
2021,06,25,12,04,25.00
2021,06,25,12,05,25.00
2021,06,25,12,06,25.00
2021,06,25,12,07,25.00
2021,06,25,12,08,25.00
2021,06,25,12,09,24.90
2021,06,25,12,10,24.90
2021,06,25,12,11,24.80
2021,06,25,12,12,24.80
2021,06,25,12,13,24.80
2021,06,25,12,14,24.90
2021,06,25,12,15,24.90
2021,06,25,12,16,24.90
2021,06,25,12,17,24.90
2021,06,25,12,18,25.00
2021,06,25,12,19,25.00
2021,06,25,12,20,25.00
2021,06,25,12,21,25.00
2021,06,25,12,22,24.90
2021,06,25,12,23,24.90
2021,06,25,12,24,24.90
2021,06,25,12,25,25.00
2021,06,25,12,26,25.00
2021,06,25,12,27,25.10
2021,06,25,12,28,25.20
2021,06,25,12,29,25.30
2021,06,25,12,30,25.40
2021,06,25,12,31,25.50
2021,06,25,12,32,25.60
2021,06,25,12,33,25.80
2021,06,25,12,34,25.90
2021,06,25,12,35,25.90
2021,06,25,12,36,25.90
2021,06,25,12,37,25.90
2021,06,25,12,38,25.90
2021,06,25,12,39,25.90
2021,06,25,12,40,25.90
2021,06,25,12,41,25.90
2021,06,25,12,42,25.90
2021,06,25,12,43,25.90
2021,06,25,12,44,25.90
2021,06,25,12,45,25.90
2021,06,25,12,46,26.00
2021,06,25,12,47,26.00
2021,06,25,12,48,26.10
2021,06,25,12,49,26.20
2021,06,25,12,50,26.10
2021,06,25,12,51,26.20
2021,06,25,12,52,26.10
2021,06,25,12,53,26.10
2021,06,25,12,54,26.10
2021,06,25,12,55,26.00
2021,06,25,12,56,26.00
2021,06,25,12,57,25.90
2021,06,25,12,58,25.90
2021,06,25,12,59,25.80
2021,06,25,13,00,25.80
2021,06,25,13,01,25.80
2021,06,25,13,02,25.90
2021,06,25,13,03,25.90
2021,06,25,13,04,25.90
2021,06,25,13,05,26.00
2021,06,25,13,06,26.10
2021,06,25,13,07,26.20
2021,06,25,13,08,26.30
2021,06,25,13,09,26.40
2021,06,25,13,10,26.40
2021,06,25,13,11,26.50
2021,06,25,13,12,26.50
2021,06,25,13,13,26.40
2021,06,25,13,14,26.50
2021,06,25,13,15,26.50
2021,06,25,13,16,26.50
2021,06,25,13,17,26.50
2021,06,25,13,18,26.50
2021,06,25,13,19,26.60
2021,06,25,13,20,26.60
2021,06,25,13,21,26.60
2021,06,25,13,22,26.70
2021,06,25,13,23,26.80
2021,06,25,13,24,26.90
2021,06,25,13,25,27.00
2021,06,25,13,26,27.10
2021,06,25,13,27,27.20
2021,06,25,13,28,27.20
2021,06,25,13,29,27.30
2021,06,25,13,30,27.40
2021,06,25,13,31,27.40
2021,06,25,13,32,27.40
2021,06,25,13,33,27.40
2021,06,25,13,34,27.40
2021,06,25,13,35,27.30
2021,06,25,13,36,27.30
2021,06,25,13,37,27.30
2021,06,25,13,38,27.40
2021,06,25,13,39,27.50
2021,06,25,13,40,27.60
2021,06,25,13,41,27.70
2021,06,25,13,42,27.80
2021,06,25,13,43,27.90
2021,06,25,13,44,28.00
2021,06,25,13,45,28.10
2021,06,25,13,46,28.10
2021,06,25,13,47,28.20
2021,06,25,13,48,28.10
2021,06,25,13,49,28.00
2021,06,25,13,50,27.90
2021,06,25,13,51,27.80
2021,06,25,13,52,27.70
2021,06,25,13,53,27.70
2021,06,25,13,54,27.60
2021,06,25,13,55,27.60
2021,06,25,13,56,27.60
2021,06,25,13,57,27.50
2021,06,25,13,58,27.50
2021,06,25,13,59,27.40
2021,06,25,14,00,27.40
2021,06,25,14,01,27.30
2021,06,25,14,02,27.30
2021,06,25,14,03,27.30
2021,06,25,14,04,27.30
2021,06,25,14,05,27.40
2021,06,25,14,06,27.40
2021,06,25,14,07,27.40
2021,06,25,14,08,27.40
2021,06,25,14,09,27.40
2021,06,25,14,10,27.50
2021,06,25,14,11,27.50
2021,06,25,14,12,27.60
2021,06,25,14,13,27.60
2021,06,25,14,14,27.60
2021,06,25,14,15,27.70
2021,06,25,14,16,27.80
2021,06,25,14,17,27.90
2021,06,25,14,18,27.90
2021,06,25,14,19,27.90
2021,06,25,14,20,27.80
2021,06,25,14,21,27.70
2021,06,25,14,22,27.50
2021,06,25,14,23,27.30
2021,06,25,14,24,27.20
2021,06,25,14,25,27.10
2021,06,25,14,26,27.10
2021,06,25,14,27,27.10
2021,06,25,14,28,27.10
2021,06,25,14,29,27.10
2021,06,25,14,30,27.20
2021,06,25,14,31,27.20
2021,06,25,14,32,27.30
2021,06,25,14,33,27.40
2021,06,25,14,34,27.40
2021,06,25,14,35,27.50
2021,06,25,14,36,27.60
2021,06,25,14,37,27.70
2021,06,25,14,38,27.80
2021,06,25,14,39,27.90
2021,06,25,14,40,28.00
2021,06,25,14,41,28.00
2021,06,25,14,42,28.10
2021,06,25,14,43,28.10
2021,06,25,14,44,28.10
2021,06,25,14,45,28.10
2021,06,25,14,46,28.20
2021,06,25,14,47,28.20
2021,06,25,14,48,28.30
2021,06,25,14,49,28.30
2021,06,25,14,50,28.40
2021,06,25,14,51,28.40
2021,06,25,14,52,28.40
2021,06,25,14,53,28.40
2021,06,25,14,54,28.50
2021,06,25,14,55,28.50
2021,06,25,14,56,28.50
2021,06,25,14,57,28.50
2021,06,25,14,58,28.50
2021,06,25,14,59,28.60
2021,06,25,15,00,28.60
2021,06,25,15,01,28.60
2021,06,25,15,02,28.70
2021,06,25,15,03,28.70
2021,06,25,15,04,28.80
2021,06,25,15,05,28.90
2021,06,25,15,06,28.90
2021,06,25,15,07,28.80
2021,06,25,15,08,28.80
2021,06,25,15,09,28.90
2021,06,25,15,10,28.90
2021,06,25,15,11,28.90
2021,06,25,15,12,29.00
2021,06,25,15,13,29.00
2021,06,25,15,14,29.10
2021,06,25,15,15,29.20
2021,06,25,15,16,29.30
2021,06,25,15,17,29.40
2021,06,25,15,18,29.50
2021,06,25,15,19,29.60
2021,06,25,15,20,29.60
2021,06,25,15,21,29.50
2021,06,25,15,22,29.40
2021,06,25,15,23,29.40
2021,06,25,15,24,29.40
2021,06,25,15,25,29.50
2021,06,25,15,26,29.60
2021,06,25,15,27,29.60
2021,06,25,15,28,29.70
2021,06,25,15,29,29.70
2021,06,25,15,30,29.80
2021,06,25,15,31,29.90
2021,06,25,15,32,30.00
2021,06,25,15,33,30.00
2021,06,25,15,34,30.00
2021,06,25,15,35,30.10
2021,06,25,15,36,30.10
2021,06,25,15,37,30.10
2021,06,25,15,38,30.10
2021,06,25,15,39,30.00
2021,06,25,15,40,30.00
2021,06,25,15,41,29.90
2021,06,25,15,42,29.90
2021,06,25,15,43,29.90
2021,06,25,15,44,29.80
2021,06,25,15,45,29.80
2021,06,25,15,46,29.80
2021,06,25,15,47,29.80
2021,06,25,15,48,29.80
2021,06,25,15,49,29.70
2021,06,25,15,50,29.60
2021,06,25,15,51,29.60
2021,06,25,15,52,29.60
2021,06,25,15,53,29.60
2021,06,25,15,54,29.60
2021,06,25,15,55,29.60
2021,06,25,15,56,29.60
2021,06,25,15,57,29.60
2021,06,25,15,58,29.60
2021,06,25,15,59,29.70
2021,06,25,16,00,29.70
2021,06,25,16,01,29.70
2021,06,25,16,02,29.70
2021,06,25,16,03,29.70
2021,06,25,16,04,29.70
2021,06,25,16,05,29.80
2021,06,25,16,06,29.80
2021,06,25,16,07,29.80
2021,06,25,16,08,29.90
2021,06,25,16,09,30.00
2021,06,25,16,10,30.10
2021,06,25,16,11,30.20
2021,06,25,16,12,30.20
2021,06,25,16,13,30.30
2021,06,25,16,14,30.30
2021,06,25,16,15,30.20
2021,06,25,16,16,30.20
2021,06,25,16,17,30.20
2021,06,25,16,18,30.20
2021,06,25,16,19,30.30
2021,06,25,16,20,30.30
2021,06,25,16,21,30.30
2021,06,25,16,22,30.30
2021,06,25,16,23,30.30
2021,06,25,16,24,30.30
2021,06,25,16,25,30.20
2021,06,25,16,26,30.20
2021,06,25,16,27,30.20
2021,06,25,16,28,30.20
2021,06,25,16,29,30.20
2021,06,25,16,30,30.10
2021,06,25,16,31,30.10
2021,06,25,16,32,30.10
2021,06,25,16,33,30.10
2021,06,25,16,34,30.20
2021,06,25,16,35,30.30
2021,06,25,16,36,30.30
2021,06,25,16,37,30.40
2021,06,25,16,38,30.50
2021,06,25,16,39,30.60
2021,06,25,16,40,30.70
2021,06,25,16,41,30.80
2021,06,25,16,42,30.90
2021,06,25,16,43,31.00
2021,06,25,16,44,31.10
2021,06,25,16,45,31.20
2021,06,25,16,46,31.30
2021,06,25,16,47,31.30
2021,06,25,16,48,31.40
2021,06,25,16,49,31.40
2021,06,25,16,50,31.40
2021,06,25,16,51,31.40
2021,06,25,16,52,31.50
2021,06,25,16,53,31.50
2021,06,25,16,54,31.50
2021,06,25,16,55,31.60
2021,06,25,16,56,31.60
2021,06,25,16,57,31.70
2021,06,25,16,58,31.70
2021,06,25,16,59,31.70
2021,06,25,17,00,31.60
2021,06,25,17,01,31.70
2021,06,25,17,02,31.80
2021,06,25,17,03,31.80
2021,06,25,17,04,31.80
2021,06,25,17,05,31.70
2021,06,25,17,06,31.60
2021,06,25,17,07,31.50
2021,06,25,17,08,31.50
2021,06,25,17,09,31.50
2021,06,25,17,10,31.60
2021,06,25,17,11,31.60
2021,06,25,17,12,31.70
2021,06,25,17,13,31.70
2021,06,25,17,14,31.80
2021,06,25,17,15,31.80
2021,06,25,17,16,31.70
2021,06,25,17,17,31.70
2021,06,25,17,18,31.60
2021,06,25,17,19,31.60